Powrót do katalogu

SATELIOT_2

AktywnyŁącznośćSSO
NORAD 60534·PAYLOAD·🇪🇸 Spain

Wystrzelony Aug 16, 2024 z Vandenberg Space Force Base

Loading…

Następne Przeloty (najbliższe 24 godziny)

TLE

ŚwieżeSource: Space-Track

Epoka: Sep 14, 2026, 10:09 UTC

1 60534U 24149BU  26257.42355341  .00001893  00000-0  17115-3 0  9996
2 60534  97.6760 330.7342 0001992 105.4912 254.6530 14.96627123113315

Śledź SATELIOT_2 w czasie rzeczywistym z AllMySat

Download on the App Store